Powrót do katalogu

TITAN 3C TRANSTAGE DEB

LostHEO
NORAD 28838·DEBRIS·🇺🇸 United States

Wystrzelony Dec 21, 1965 z Cape Canaveral Space Force Station

Loading…

Następne Przeloty (najbliższe 24 godziny)

TLE

NieaktualneSource: Space-Track

Epoka: Oct 6, 2025, 12:18 UTC

1 28838U 65108CQ  25279.51254346 -.00000194  00000-0 -28812-2 0  9993
2 28838  26.1218 198.1966 6734013 204.4836 355.4929  2.69762996 20298

Śledź TITAN 3C TRANSTAGE DEB w czasie rzeczywistym z AllMySat

Download on the App Store